Theta_e
355 356 354 355 357 357 355 359 357 358 358 357 359 358 355 357 363 361 359 356 353 350 351 350 353 354 353 352 353 353 351 352 352 354 352 355 360 363 365 364 365 365 363 363 362 361 360 359 358 359 359 358 357 357 358 358 358 357 357 356 356 356 356 356 356 356 356 356 356 356 355 355 355 355 355 354 354 355 355 355 355 355 355 356 356
354 352 350 354 359 358 359 359 358 361 360 358 362 362 361 358 357 358 354 358 353 353 353 350 353 353 354 351 356 353 355 355 354 354 356 358 360 362 366 366 365 365 364 364 363 362 361 360 359 359 359 359 358 358 358 358 358 358 357 357 357 356 356 356 356 356 356 356 356 356 356 355 355 355 355 355 355 355 355 355 355 355 356 356 356
361 363 362 364 361 359 359 359 360 362 362 359 359 356 356 357 359 359 362 358 355 358 354 353 353 352 352 352 352 353 351 357 359 358 360 359 359 361 363 366 366 365 365 365 364 363 362 361 360 359 359 359 359 358 358 359 358 358 358 358 357 357 357 356 356 356 356 356 356 356 356 356 356 356 356 356 356 356 355 355 355 355 355 355 356
367 365 362 363 362 361 363 362 360 364 362 360 359 358 357 357 357 358 358 358 354 352 355 353 352 351 353 351 354 354 352 353 350 353 359 357 360 360 362 364 366 366 366 365 364 364 363 362 361 360 359 359 359 358 358 359 359 359 358 358 357 357 357 357 357 357 357 357 357 356 356 356 356 356 356 356 357 356 356 356 355 356 356 356 356
367 364 364 363 363 365 361 361 363 365 365 363 361 359 357 354 354 356 355 353 353 352 351 350 349 349 350 351 352 352 355 352 352 353 356 354 358 358 360 363 363 365 366 365 365 365 365 363 362 361 360 359 359 359 359 358 359 359 358 358 358 357 357 357 357 357 357 357 357 357 357 357 357 357 357 357 357 358 357 357 357 357 357 357 357
367 366 365 361 360 362 361 360 364 363 364 366 362 361 358 356 352 353 353 352 349 351 352 351 351 353 353 353 352 356 357 354 352 352 357 353 360 357 360 362 363 363 363 366 365 365 365 364 362 362 361 360 359 359 359 359 359 359 359 358 358 358 358 358 358 357 358 357 358 357 357 357 358 358 358 358 358 358 358 358 358 358 357 358 358
368 366 362 363 358 357 361 362 359 358 358 362 364 362 359 357 356 352 353 352 350 351 353 350 349 349 352 352 353 353 354 351 361 357 355 353 353 354 355 359 360 362 362 363 365 365 365 365 363 362 362 361 360 359 360 359 359 359 359 359 359 359 358 358 358 358 358 358 358 358 358 358 358 358 358 358 358 358 358 358 358 358 358 358 358
364 365 361 362 359 360 366 363 358 356 360 360 361 359 360 358 356 353 350 348 349 350 353 352 351 350 351 354 354 356 354 352 351 352 351 355 354 356 354 353 352 357 362 362 361 363 364 365 365 364 362 362 361 360 360 360 360 359 360 360 360 359 358 358 358 358 358 358 358 358 358 358 358 358 358 358 358 358 358 358 358 358 358 358 359
363 363 363 363 362 360 359 361 363 360 358 360 360 360 359 356 357 355 353 350 350 349 349 350 349 348 349 350 351 353 351 352 352 352 355 357 359 356 355 357 353 356 357 362 361 360 362 364 365 365 364 363 362 361 361 361 361 360 360 360 360 360 360 359 359 358 358 359 359 359 359 359 359 359 359 359 359 359 359 358 358 358 358 359 359
364 365 363 362 360 358 360 361 362 361 358 358 359 359 359 358 355 358 356 353 352 350 349 350 351 349 348 346 348 350 352 354 357 360 363 358 359 355 353 356 353 353 355 355 358 361 361 362 364 366 365 364 363 362 362 361 361 361 360 360 360 361 360 360 359 359 359 359 360 360 360 360 360 360 359 359 359 359 359 359 359 359 359 360 360
364 366 363 360 360 361 359 360 362 362 361 359 358 358 358 357 355 354 356 356 353 353 353 351 351 351 349 349 348 350 354 358 360 360 358 352 356 354 355 354 355 352 350 353 355 359 361 362 360 361 363 365 364 363 362 362 361 361 362 361 361 361 361 360 360 360 360 360 360 360 360 360 360 360 360 360 360 360 360 360 359 360 360 360 360
363 364 365 364 362 362 359 360 361 360 359 356 356 356 355 353 352 353 354 354 355 353 353 352 351 351 349 350 350 351 354 356 354 354 356 356 356 356 353 352 353 352 351 350 354 355 359 362 363 359 359 362 365 364 363 362 362 362 362 362 362 361 362 361 361 360 360 360 360 360 360 360 360 360 360 360 360 360 359 359 360 360 360 361 361
363 362 362 363 362 362 361 360 361 357 357 355 354 355 357 356 355 355 353 351 350 351 351 351 349 346 347 347 348 351 352 352 350 350 351 353 352 352 353 353 351 349 351 354 356 353 351 360 362 361 359 359 362 364 364 363 362 361 362 363 363 362 362 362 362 361 361 361 361 361 360 360 360 360 360 360 360 359 359 359 358 359 360 360 360
364 363 363 362 361 359 360 361 359 357 359 355 355 355 354 354 353 352 354 350 347 348 348 348 344 340 339 340 344 347 350 351 350 349 348 350 350 350 351 351 351 352 354 355 354 357 355 349 360 362 360 359 360 360 362 362 362 361 362 362 363 363 362 363 363 362 362 362 361 361 361 360 359 360 360 360 359 359 358 358 358 359 359 360 360
360 362 360 360 362 362 360 360 358 358 359 358 353 349 351 350 349 345 343 348 348 349 349 350 341 343 343 337 334 335 341 348 350 348 347 347 348 348 350 348 348 352 356 356 355 353 352 353 351 356 360 361 361 361 360 362 362 363 361 360 361 363 364 364 364 363 363 363 362 361 361 360 360 360 360 359 359 359 359 359 358 358 358 359 359
355 354 356 356 356 355 354 356 355 356 357 354 355 355 349 347 346 348 346 342 344 343 348 351 346 341 332 334 335 335 329 333 340 349 348 345 346 347 348 349 350 351 356 354 353 352 353 351 350 351 353 360 361 361 361 360 362 365 365 362 360 360 363 364 364 364 364 363 362 361 360 360 359 359 361 360 360 359 359 359 359 358 358 359 359
354 354 353 355 356 356 355 354 355 355 355 356 356 351 352 347 348 349 348 344 340 343 346 350 347 346 340 333 332 331 330 333 337 337 342 341 343 344 347 349 348 350 350 349 351 349 350 350 350 350 350 354 358 360 362 362 361 364 363 365 362 359 360 363 364 364 365 364 363 362 360 360 360 360 361 362 361 360 359 359 358 358 358 358 359
355 355 352 352 354 353 354 353 353 354 353 355 355 354 349 349 350 348 346 348 343 339 338 346 347 341 337 337 338 333 333 337 334 329 344 343 344 347 348 350 353 350 350 350 352 347 351 350 351 353 358 356 359 350 353 360 364 362 362 362 364 360 359 360 363 365 365 364 363 363 362 360 360 360 361 362 362 361 361 359 359 358 358 359 359
350 350 351 352 354 355 354 353 352 353 355 350 349 350 352 351 351 350 350 347 342 337 339 341 345 345 342 341 343 343 342 336 331 334 329 338 346 343 344 347 351 351 351 352 355 354 348 347 349 353 357 354 353 351 354 353 356 362 366 365 363 361 359 359 360 363 365 364 364 364 363 362 360 360 360 361 363 362 361 361 359 359 359 359 359
353 354 351 350 354 354 354 354 354 353 354 351 350 351 353 353 350 350 350 348 344 341 339 340 339 340 343 341 341 341 341 340 337 332 331 328 332 339 341 342 346 349 350 352 353 353 350 346 347 351 350 354 351 352 353 350 350 352 357 363 363 363 360 358 359 360 363 365 365 364 364 364 363 361 360 362 362 363 362 361 361 359 359 359 360
354 352 352 354 354 353 352 352 352 351 355 352 352 352 351 349 350 350 347 346 345 345 343 341 341 339 339 339 339 336 337 337 337 336 330 328 329 331 333 339 341 341 342 346 350 353 354 349 352 353 351 349 351 351 352 351 353 353 356 357 362 363 361 358 357 361 361 363 365 366 365 365 364 364 363 363 363 363 362 362 362 361 360 361 361
353 353 354 352 352 353 352 349 349 349 353 350 349 349 348 349 350 349 348 348 348 347 345 345 343 343 342 340 333 334 334 335 336 335 334 333 328 330 333 333 333 339 344 344 345 350 352 353 353 354 354 351 350 351 350 350 351 353 353 355 360 361 361 358 357 360 360 360 363 366 367 366 366 365 364 364 364 364 364 363 363 363 363 363 363
349 350 351 351 353 351 345 347 349 350 352 352 351 349 346 347 350 349 350 347 348 348 346 346 345 343 341 341 337 337 335 330 332 333 331 329 330 330 332 333 334 333 339 346 351 352 354 354 352 356 354 353 355 355 351 351 355 355 354 355 355 358 358 358 357 358 356 357 360 363 366 367 366 366 365 365 365 365 365 365 365 364 364 364 364
352 350 349 343 350 351 350 349 350 350 350 351 350 350 347 349 349 347 345 345 346 345 343 342 343 342 342 342 340 337 335 334 332 335 331 331 330 327 329 333 335 337 340 343 348 350 349 351 350 347 353 357 349 353 354 354 354 355 355 355 354 355 356 356 356 356 355 354 354 358 361 364 365 366 367 366 366 366 366 366 365 366 366 365 364
349 347 345 347 350 348 348 350 350 350 350 351 350 350 351 349 348 346 347 344 346 343 341 342 340 340 338 341 340 337 338 340 338 334 333 334 332 328 331 335 329 331 336 340 340 346 349 348 349 350 348 352 348 348 353 354 354 356 356 355 351 350 351 353 353 353 353 353 353 356 358 358 358 360 362 364 364 365 366 366 367 366 366 365 364
344 347 346 345 346 346 347 347 349 349 351 351 350 348 349 349 348 348 345 347 348 347 344 343 342 342 339 337 339 338 341 340 340 338 335 334 331 329 329 332 334 331 335 338 341 338 341 344 346 346 348 349 353 352 353 354 354 355 354 354 351 348 348 349 351 350 351 351 351 353 355 355 356 357 359 360 361 362 363 365 366 367 366 365 364
350 348 349 348 347 348 347 347 348 348 349 349 349 351 349 346 347 345 346 347 345 346 344 343 341 341 338 337 340 341 339 340 340 339 339 336 334 333 330 326 328 332 331 334 337 339 338 340 345 348 350 353 355 353 352 351 353 354 354 353 352 349 347 347 348 350 349 349 349 350 352 353 354 356 356 357 357 360 361 362 362 363 363 363 362
348 349 346 347 348 346 347 346 348 346 348 349 348 346 347 345 345 344 343 344 343 342 342 340 340 342 341 343 341 336 339 341 342 341 341 340 338 337 334 331 325 323 327 329 331 332 340 339 342 344 349 354 355 354 352 352 351 353 354 351 350 349 348 347 348 348 347 347 348 348 348 350 350 351 353 354 354 354 356 357 358 358 358 359 360
347 349 348 348 348 346 346 345 346 347 347 348 348 348 348 345 343 344 343 343 345 344 344 343 343 342 342 342 341 340 341 343 344 339 335 335 335 337 338 334 331 325 323 324 327 329 334 337 336 342 346 350 352 352 351 350 351 351 351 352 352 351 349 346 346 346 347 346 346 346 346 347 347 348 350 351 350 351 353 352 353 354 355 355 356
344 345 347 346 347 346 346 346 346 345 346 345 346 347 346 347 345 346 345 345 344 345 345 343 342 342 340 338 338 338 340 341 342 338 336 337 336 335 335 334 334 326 326 323 324 331 332 337 337 337 349 349 352 352 351 350 352 353 352 351 352 353 349 345 345 345 346 345 344 344 344 344 345 345 345 345 347 348 350 350 350 350 351 352 353
349 350 348 345 345 346 346 344 344 344 345 344 347 346 346 345 344 344 344 344 344 343 343 341 342 341 338 335 338 339 339 338 340 342 340 339 337 338 337 334 334 331 327 327 323 328 335 332 336 339 339 351 352 351 353 351 351 352 351 352 353 352 350 348 343 343 343 343 343 342 341 340 342 343 342 342 343 345 347 347 348 347 348 349 350
344 344 344 344 343 342 339 340 341 341 343 343 343 344 345 344 344 344 344 344 343 342 341 342 341 341 338 335 336 337 338 337 336 335 334 335 335 338 335 333 333 333 331 326 324 325 333 334 335 338 341 341 347 353 352 352 352 351 352 351 351 352 352 352 346 342 341 341 341 341 339 338 340 341 341 342 343 344 346 345 344 345 346 347 347
345 343 343 345 345 342 341 343 342 344 344 344 345 345 344 344 344 343 342 342 340 340 341 340 340 339 338 336 335 336 338 334 333 331 330 329 330 331 332 333 334 335 332 328 326 326 331 335 335 336 339 341 340 348 348 348 348 349 349 349 350 352 351 352 353 345 341 339 339 339 339 338 339 339 340 341 342 343 345 345 344 343 344 343 343
346 342 345 342 343 344 341 342 344 343 344 345 342 344 343 342 341 340 340 340 339 338 339 338 338 337 337 335 334 335 337 333 331 329 328 328 328 327 327 327 328 329 331 331 329 328 327 332 333 338 339 342 338 341 342 345 344 346 346 346 349 351 349 349 351 354 343 340 337 336 337 337 338 338 338 339 340 341 341 342 341 341 341 340 340
348 346 344 343 344 344 343 343 344 343 344 344 343 344 342 341 339 339 340 340 338 338 336 337 336 337 335 334 332 334 334 331 331 329 329 328 327 326 325 326 326 327 329 330 327 325 326 328 333 334 336 338 338 339 342 342 344 347 343 344 346 348 348 349 352 354 346 339 337 336 336 336 337 337 337 338 337 337 337 337 337 338 338 337 337
341 345 343 342 342 343 342 344 343 343 344 344 345 344 343 341 339 339 340 339 338 338 337 336 335 334 333 332 333 333 333 331 330 329 329 327 326 325 324 325 326 326 326 328 329 327 327 326 331 333 335 335 337 340 342 343 341 342 345 347 349 349 348 350 352 353 349 340 338 336 336 335 335 335 335 335 334 334 334 334 334 335 334 334 334
335 338 346 348 346 344 341 342 342 342 343 344 343 343 342 340 340 338 336 337 338 337 336 337 335 334 333 332 333 334 333 330 329 328 328 326 325 324 324 324 324 324 324 324 325 328 327 326 328 333 335 336 338 339 341 340 341 342 344 344 349 351 350 351 353 355 348 338 338 336 335 335 335 335 335 334 334 333 332 332 331 332 332 331 331
336 334 338 340 342 343 343 344 344 342 343 343 344 343 341 339 332 329 329 333 333 334 335 336 334 334 332 332 334 334 332 330 328 329 329 327 326 324 323 323 323 323 322 322 322 323 325 327 328 329 333 334 335 337 340 340 339 339 341 345 350 351 348 348 351 354 355 353 347 344 337 336 335 334 334 334 334 332 331 330 329 328 328 327 325
333 331 332 337 341 340 342 342 341 340 340 341 343 344 342 336 332 331 331 334 335 335 335 334 333 332 332 332 333 333 333 332 330 328 328 327 326 325 324 323 323 323 322 321 322 321 322 325 328 330 331 334 335 333 338 341 340 340 342 341 338 341 343 341 342 350 353 356 351 345 345 342 340 338 333 332 333 332 332 330 328 326 325 323 322
333 333 331 332 334 338 337 337 338 339 339 339 340 344 341 338 337 336 335 335 335 333 334 334 333 331 332 332 330 331 333 335 332 329 329 327 327 325 325 324 323 322 321 321 320 320 320 323 326 328 330 331 333 335 338 338 336 340 342 339 335 337 340 344 346 347 352 353 352 352 345 342 340 337 333 332 332 332 331 331 330 329 325 323 322
336 333 334 333 337 337 337 337 338 339 338 339 342 338 339 341 339 338 338 335 333 332 332 332 332 333 332 333 331 330 338 332 323 320 321 321 325 324 325 325 323 322 320 320 319 319 320 322 325 328 329 330 331 332 332 333 334 334 340 340 337 338 341 343 346 350 352 351 351 351 352 351 348 347 343 340 338 335 333 333 335 333 329 323 323
338 338 340 340 335 334 336 337 338 337 338 341 338 332 333 339 340 339 336 335 334 334 333 332 330 330 332 333 331 332 327 324 323 320 316 315 315 321 325 325 323 321 320 319 318 319 319 320 323 326 326 327 329 331 331 332 337 339 338 340 337 339 340 341 343 347 353 352 349 348 351 355 352 351 348 345 345 340 339 336 337 338 333 327 326
341 340 338 338 336 336 335 334 335 336 338 339 332 326 327 330 337 339 337 335 334 333 332 331 330 330 333 335 333 331 330 330 333 327 321 319 319 316 315 315 316 320 318 318 318 320 320 320 322 325 326 327 329 332 332 334 335 336 337 338 339 339 337 334 331 340 351 351 349 347 348 354 354 351 352 351 350 348 343 343 337 336 333 330 328
341 341 337 338 339 337 335 334 334 336 336 335 327 325 327 328 331 338 336 334 333 332 332 331 330 332 333 332 333 334 333 331 333 332 330 326 321 319 316 315 315 315 315 319 319 319 319 319 320 322 324 326 328 331 332 333 333 336 338 339 339 337 336 334 334 335 345 352 349 346 345 351 352 351 350 352 353 353 350 342 338 336 334 332 330
339 340 339 337 337 339 337 336 335 334 335 331 324 324 325 325 327 331 336 336 333 333 332 332 332 333 333 332 331 332 332 332 334 334 333 333 324 320 318 317 318 318 319 319 317 322 322 321 321 322 324 326 327 329 333 334 335 333 338 338 338 338 338 337 337 338 344 352 349 345 343 347 350 347 348 352 354 355 354 342 338 337 334 333 332
338 337 338 339 339 339 338 337 337 336 337 330 323 322 322 323 325 328 335 335 334 333 333 332 331 332 332 332 331 330 331 332 334 334 333 332 329 328 326 324 324 324 319 318 317 316 319 323 323 322 325 327 327 331 335 336 335 332 335 337 338 336 336 336 340 342 346 354 348 345 342 344 348 348 346 349 353 355 355 347 338 336 335 333 332
336 339 339 339 339 336 335 333 333 336 338 321 321 320 319 319 321 326 335 335 334 334 334 334 334 333 331 331 330 330 331 330 333 332 332 329 326 325 324 323 323 324 325 325 325 325 325 324 324 324 324 325 326 328 333 336 336 338 337 337 340 339 339 342 341 342 341 347 347 343 337 343 348 345 345 347 351 353 355 344 337 336 334 332 331
337 337 337 338 336 335 335 335 336 335 332 323 321 319 317 317 321 332 335 335 335 334 334 336 334 331 332 331 330 329 329 331 327 321 321 323 324 323 322 322 322 323 324 320 320 320 322 323 323 323 324 325 321 325 326 327 330 338 340 343 344 338 336 332 331 334 336 344 344 339 337 341 346 343 343 348 350 350 353 354 338 333 333 331 332
335 335 335 334 336 335 334 336 336 336 334 332 320 316 314 316 321 334 335 335 335 334 335 336 334 333 334 334 332 331 332 333 326 321 316 314 323 321 320 320 321 322 322 325 322 319 318 316 314 315 315 316 316 316 315 316 321 328 338 335 333 334 332 330 331 333 336 342 344 340 338 339 345 344 342 346 348 347 350 351 353 334 331 330 330
332 331 332 334 337 337 334 334 330 331 330 325 312 311 311 314 323 334 335 335 333 334 334 334 334 333 333 333 333 332 333 334 324 315 313 316 320 319 320 320 320 320 322 324 325 325 320 318 318 318 319 319 319 318 318 317 317 320 332 331 335 336 331 332 331 334 337 339 342 348 339 340 345 346 343 345 345 346 347 350 352 346 331 327 327
334 338 337 336 333 333 329 328 335 330 329 325 311 311 312 314 320 332 335 334 332 331 331 330 332 332 331 332 332 329 328 326 310 310 310 311 317 318 319 320 319 320 322 323 322 321 322 324 326 327 326 324 329 328 326 319 319 322 332 336 336 335 332 332 334 335 333 335 341 350 341 342 343 345 343 338 338 344 346 349 348 344 338 337 332
Wind_Speed
4 4 3 4 5 5 4 4 4 4 4 3 2 0 2 3 0 3 3 2 1 2 4 9 10 5 3 6 1 5 5 7 5 7 6 6 6 9 17 17 17 16 17 17 18 18 18 18 18 17 17 17 17 17 17 17 16 16 16 16 15 15 14 14 13 13 13 12 12 12 11 11 11 10 10 9 9 9 8 8 8 7 7 7 7
5 7 8 10 7 5 5 4 4 3 3 2 1 1 1 2 2 2 1 5 5 6 6 9 8 6 6 8 5 2 7 9 7 5 6 7 7 7 17 16 16 17 17 18 18 18 18 18 18 18 18 18 18 18 17 17 17 17 16 16 16 16 15 15 14 14 13 13 12 12 12 12 11 11 10 10 10 10 9 9 8 8 8 8 7
7 8 7 6 4 4 5 3 3 2 2 2 2 2 3 2 2 2 4 4 5 7 7 7 6 6 5 6 5 7 6 3 4 4 4 5 5 5 10 18 17 18 18 19 19 18 18 18 18 18 18 18 18 19 18 18 18 17 17 16 16 16 16 15 15 15 14 14 13 13 12 12 12 11 11 11 11 10 10 9 9 9 8 8 8
0 3 3 3 3 4 4 3 4 3 3 3 2 2 2 2 3 4 2 1 2 4 4 4 5 4 4 5 4 3 5 3 4 4 3 4 2 4 6 10 18 18 19 19 19 19 19 19 19 18 18 19 19 19 20 19 19 18 18 17 17 16 16 16 16 16 15 14 14 13 13 13 12 12 12 11 11 11 10 10 10 9 9 9 8
3 2 2 3 3 4 4 4 3 3 4 5 4 3 3 3 4 2 3 1 2 3 5 6 5 5 5 4 3 4 3 3 5 4 7 3 6 5 6 7 10 17 19 19 20 20 20 20 19 19 19 19 19 20 20 21 20 19 18 18 17 17 16 17 16 16 16 15 15 14 14 14 13 13 12 12 12 11 11 11 10 10 10 10 9
4 3 3 3 4 4 4 4 3 4 4 3 3 3 3 3 4 2 3 3 3 4 5 4 4 3 4 4 6 3 3 3 4 5 9 9 5 3 5 6 7 8 10 18 19 19 20 20 20 19 19 19 19 20 20 21 20 20 20 19 18 17 17 17 17 17 16 16 15 15 15 14 14 14 13 13 12 12 12 11 11 11 10 10 10
2 2 3 4 4 5 1 2 2 6 5 5 3 3 3 4 3 3 3 3 4 5 5 4 5 5 4 4 4 3 4 4 2 2 3 6 2 4 2 6 6 6 7 8 14 19 20 20 20 20 20 20 20 20 21 21 21 21 21 20 19 18 17 17 17 17 17 16 16 16 15 15 15 14 14 14 13 13 13 12 12 12 11 11 11
3 4 3 3 3 3 2 4 3 4 5 5 6 5 4 4 4 4 4 4 4 5 3 4 5 6 4 4 4 3 4 5 6 4 4 7 9 5 3 4 7 7 7 7 7 11 20 20 20 21 21 21 21 21 21 21 21 22 21 21 21 20 19 18 17 17 17 17 17 16 16 16 16 15 15 15 14 14 13 13 13 12 12 12 12
2 1 1 4 3 3 5 5 4 3 3 5 5 5 5 6 3 4 5 4 5 7 6 5 6 7 6 5 5 5 5 4 5 4 4 1 7 8 6 4 7 8 8 7 6 7 15 20 21 22 21 21 21 21 21 21 22 22 22 22 22 21 20 19 19 18 18 17 17 17 17 17 16 16 16 16 15 14 13 14 14 13 13 13 12
4 4 2 4 4 5 5 5 4 4 5 6 5 4 4 4 5 4 4 5 5 4 5 5 6 7 8 8 6 5 5 4 3 2 1 1 2 4 7 6 6 6 5 8 8 7 7 16 21 21 22 21 21 21 21 22 22 23 23 23 22 22 21 21 20 19 19 18 18 17 17 16 16 15 16 16 16 15 14 14 14 13 13 12 13
3 3 4 4 5 5 6 7 5 5 5 5 5 5 5 4 6 6 5 6 6 5 5 5 7 7 7 7 7 6 5 4 3 3 3 4 2 3 5 6 7 9 9 10 11 9 9 8 11 11 14 22 22 22 23 23 22 23 23 24 24 23 22 22 21 20 20 19 18 17 17 16 15 16 17 16 16 14 14 14 14 14 14 13 13
2 3 4 4 4 4 5 5 5 5 4 5 6 5 6 7 7 8 7 6 5 5 5 6 6 6 8 8 8 8 7 5 5 5 3 3 3 3 5 7 8 7 9 11 12 9 10 9 9 11 10 16 23 22 24 23 22 23 24 24 25 24 24 23 22 21 21 21 20 18 17 17 17 16 16 16 15 15 14 14 14 14 15 14 13
2 2 3 4 4 5 4 5 3 3 4 5 7 9 6 5 6 5 8 6 4 5 6 6 6 6 5 8 9 8 10 10 11 8 6 5 5 6 6 7 9 8 9 9 6 9 8 9 9 9 11 9 15 23 23 23 23 23 24 25 25 25 25 24 23 22 22 22 21 19 18 17 17 17 17 17 16 16 15 15 15 15 15 15 14
3 3 3 4 4 4 4 4 4 4 4 5 7 7 8 8 5 6 4 5 5 6 6 4 3 5 6 6 6 5 7 9 10 9 9 8 7 7 8 9 9 9 9 8 7 6 4 8 7 9 9 9 9 11 14 17 19 23 24 24 25 26 26 25 24 23 22 22 22 20 19 18 18 18 18 17 17 16 16 16 15 15 15 15 15
2 2 3 4 4 4 4 4 5 4 4 4 2 5 6 6 6 6 6 5 5 5 5 4 6 4 4 5 7 6 5 5 7 9 9 9 8 10 10 10 12 7 6 6 6 5 6 5 7 9 8 9 9 9 11 13 15 22 24 24 24 25 27 26 25 24 23 23 22 21 20 19 19 19 19 18 18 17 16 16 15 15 15 15 15
4 4 3 3 3 4 4 5 5 5 5 6 5 4 1 3 4 6 6 7 5 5 4 4 6 4 6 5 4 4 9 5 5 5 9 11 11 11 10 8 7 5 3 6 7 6 7 7 7 9 10 9 9 8 10 10 18 23 25 25 25 24 26 27 27 26 24 23 22 21 20 20 20 20 19 19 19 18 17 17 16 16 16 16 15
3 3 3 3 3 3 4 5 5 5 5 4 2 2 2 3 5 5 5 5 6 5 4 4 4 2 5 3 5 4 6 7 7 7 6 6 9 11 9 8 8 6 6 6 8 9 7 6 8 9 11 9 9 9 9 10 11 13 17 24 25 25 25 26 27 27 25 24 23 21 21 21 21 21 20 19 19 19 18 17 17 16 16 16 16
3 3 5 5 4 4 4 5 5 5 5 4 2 2 5 5 5 5 5 3 3 3 6 5 4 5 7 8 6 7 7 4 5 6 4 7 7 7 5 6 5 6 5 5 7 8 6 8 10 11 8 7 5 3 7 7 9 9 10 14 25 25 25 25 26 27 26 25 24 22 21 21 21 21 20 20 20 20 19 18 17 17 16 16 16
4 4 4 4 3 3 4 4 5 5 5 5 5 4 3 2 1 2 1 1 1 3 5 6 4 5 5 9 9 8 7 7 7 7 10 5 3 5 6 7 7 7 7 7 7 8 8 8 8 10 8 8 7 7 5 4 10 11 15 16 20 24 25 26 26 26 27 26 25 24 23 22 21 21 21 20 20 20 19 19 18 17 17 17 16
2 3 4 4 3 3 3 3 4 3 1 3 4 4 3 2 2 2 1 1 2 4 6 6 6 4 3 6 7 8 9 10 10 11 10 11 11 8 9 9 8 7 7 8 9 9 9 7 10 9 8 8 6 6 5 7 8 9 11 16 18 22 25 25 26 27 26 26 25 25 24 23 22 22 21 20 20 20 20 19 19 18 18 17 17
3 3 3 3 3 3 3 3 3 4 2 3 3 4 3 5 3 1 1 2 3 4 4 5 3 4 4 4 3 5 5 6 8 6 5 10 11 10 9 8 10 11 9 7 7 6 7 12 13 11 9 9 6 7 8 8 7 8 8 14 18 20 23 24 26 27 27 26 28 25 24 24 24 23 22 21 20 21 20 20 19 19 18 17 17
4 3 3 3 3 2 2 4 4 4 3 4 5 5 4 5 4 3 4 5 4 5 5 4 3 3 3 3 3 5 5 5 6 6 8 9 11 9 9 11 11 8 7 7 8 7 6 6 9 8 8 8 7 7 8 9 8 8 11 19 21 21 21 23 25 26 27 27 26 25 26 24 24 24 23 23 22 21 21 20 20 19 19 18 18
3 3 3 4 2 4 4 4 4 4 4 3 3 3 4 4 3 3 4 5 3 4 4 4 4 4 4 4 4 4 5 6 7 4 5 6 6 9 9 10 10 12 9 7 5 6 3 4 5 5 7 8 7 6 8 9 9 9 13 16 18 21 22 23 24 26 26 26 26 25 25 26 24 23 23 23 23 22 22 21 21 19 20 20 19
3 4 3 5 3 3 3 3 3 3 4 3 3 3 3 3 4 4 5 6 5 7 5 5 6 4 5 5 4 3 4 7 5 6 6 7 9 9 9 9 10 9 8 8 8 7 7 6 7 8 7 3 3 6 6 8 9 15 13 15 16 21 23 23 24 25 25 25 25 25 25 25 24 23 23 23 23 23 22 22 21 21 20 21 20
4 3 4 4 4 4 3 3 3 3 3 4 4 4 3 3 3 3 3 5 3 5 5 6 6 6 6 5 3 4 6 5 4 4 6 6 7 9 9 8 10 11 9 8 7 6 6 7 7 7 8 6 9 12 12 11 9 9 13 10 17 13 17 22 23 24 25 25 25 25 25 24 23 22 22 22 22 22 22 22 21 21 21 20 20
4 4 4 5 4 4 4 4 4 3 3 3 5 5 3 3 3 3 4 4 3 3 3 4 5 3 5 7 4 5 5 5 5 4 5 5 6 8 9 7 8 11 9 6 7 8 7 7 8 8 8 9 9 11 11 10 9 11 15 11 12 14 18 22 23 23 24 24 24 25 24 24 23 23 22 22 22 21 21 21 21 21 21 20 19
3 3 3 4 4 3 4 4 4 3 2 2 3 4 3 4 3 4 4 4 3 3 3 4 4 2 4 6 6 4 5 5 5 6 5 6 7 6 7 10 10 9 9 7 7 9 12 8 7 7 9 9 8 9 10 9 9 11 12 9 9 16 15 22 25 24 23 24 24 24 24 24 23 22 22 22 22 22 21 21 21 20 20 19 19
2 3 4 4 3 4 4 4 4 4 3 3 3 3 3 5 4 4 5 3 3 4 4 5 5 4 4 3 3 5 6 5 4 5 6 5 5 6 6 6 11 13 10 9 7 9 9 7 7 9 8 9 10 8 9 10 8 11 13 9 10 11 18 25 28 23 23 24 24 24 24 24 23 23 23 22 22 22 21 21 20 20 19 18 18
3 2 3 3 3 4 4 4 4 3 3 3 2 3 2 3 3 4 5 4 3 3 4 4 4 4 3 4 3 4 5 4 4 4 6 7 7 6 6 7 8 10 10 10 10 9 9 8 7 6 10 10 10 9 8 8 10 12 9 10 11 12 19 27 27 24 23 24 23 23 23 23 23 23 23 24 24 23 23 22 21 20 19 19 18
3 3 3 3 3 4 4 4 4 4 4 4 3 2 3 3 3 3 3 3 4 3 3 3 4 3 3 4 4 4 4 4 2 4 6 5 6 7 8 8 7 10 10 12 13 9 10 8 9 6 5 9 10 9 8 9 12 13 9 10 12 14 18 19 22 22 23 24 24 23 23 23 23 23 23 23 23 23 23 22 21 20 19 19 19
2 2 2 3 3 3 3 4 4 4 3 3 2 2 2 3 3 4 3 3 3 3 3 4 3 3 3 4 4 4 4 5 4 3 5 5 6 6 6 7 8 10 13 11 13 11 7 11 9 10 8 5 6 7 8 9 11 12 9 8 9 15 19 15 20 21 22 23 23 23 23 23 23 23 22 22 22 22 22 22 22 21 20 20 19
2 3 3 4 4 4 5 5 5 4 4 4 3 3 3 3 4 4 3 4 3 4 4 4 3 3 4 4 4 4 4 4 4 5 6 6 7 6 6 7 8 10 10 11 15 19 10 9 9 9 10 10 7 7 8 9 8 10 8 8 10 14 11 10 15 20 22 23 23 23 23 23 23 23 22 21 22 22 22 22 22 21 21 20 20
3 4 4 3 3 4 5 5 5 5 4 4 3 3 3 3 3 3 4 4 4 4 4 4 4 4 3 4 4 4 3 4 4 5 6 7 7 7 8 8 9 8 9 12 14 15 14 9 10 11 11 10 9 6 9 9 9 8 9 9 8 7 8 11 9 16 21 22 23 23 23 23 23 23 22 22 22 22 22 22 22 21 21 20 20
5 4 3 4 3 3 5 5 5 6 5 5 5 3 3 3 3 4 4 4 4 4 4 4 4 3 3 4 4 4 3 3 5 6 6 7 8 9 9 9 9 10 11 13 13 13 16 11 9 9 10 10 12 9 9 8 9 8 9 9 8 8 9 11 12 9 19 20 22 23 23 23 23 23 22 22 22 22 22 22 22 21 21 20 19
3 3 4 4 4 4 4 4 4 5 5 5 4 4 4 4 5 5 5 5 5 4 5 5 4 4 4 4 5 4 3 3 4 4 5 5 7 8 10 9 10 11 11 11 11 14 16 16 10 10 10 10 11 11 11 11 8 9 11 9 9 9 10 12 12 10 14 20 21 21 22 22 22 22 22 22 21 21 21 21 21 21 20 20 19
3 3 4 5 5 5 4 3 3 4 4 4 4 4 4 5 6 6 5 5 7 5 5 5 5 5 5 5 4 4 3 3 3 4 3 4 5 6 9 9 10 12 11 11 12 12 13 16 12 10 9 10 11 12 12 11 12 10 9 11 12 11 12 13 14 11 11 18 21 22 22 22 21 21 21 21 21 20 21 21 21 21 20 20 19
5 5 4 2 2 3 3 2 3 4 4 4 5 4 3 3 5 7 9 8 8 7 6 5 5 5 5 5 4 3 3 3 3 4 3 5 6 7 7 8 9 10 10 10 12 13 14 14 14 9 9 10 10 11 10 10 10 10 10 10 10 11 13 13 11 10 12 15 19 20 20 20 21 21 21 21 21 21 20 20 20 20 20 19 18
5 5 4 4 3 3 3 2 2 4 4 4 5 4 3 2 4 5 6 7 9 11 8 6 6 5 5 6 4 3 3 3 3 4 3 6 6 7 9 9 9 10 11 12 11 12 14 14 13 13 10 11 10 10 10 11 10 9 8 9 8 6 5 8 10 9 8 6 6 8 12 14 17 20 20 20 20 20 20 20 20 20 20 19 18
8 8 7 5 4 4 3 2 3 4 4 4 4 4 1 1 3 5 7 8 7 8 8 7 7 7 6 5 4 3 2 3 3 4 5 6 5 8 9 10 10 10 11 11 10 11 13 14 12 12 11 9 10 12 10 10 11 10 8 5 3 6 6 10 11 11 8 8 11 15 13 13 14 13 17 20 20 20 20 20 19 20 18 18 17
8 8 7 6 6 4 5 5 5 5 5 5 4 2 3 3 4 6 6 6 8 8 7 7 7 8 7 6 7 5 3 2 2 5 5 5 5 7 8 9 9 11 11 11 11 10 12 13 12 11 9 10 9 10 10 9 10 10 7 7 9 8 9 10 12 12 8 8 8 8 10 12 12 15 17 17 19 19 19 18 19 19 20 18 18
6 7 6 7 5 6 6 6 6 6 5 4 1 0 3 4 5 5 5 5 6 7 7 8 7 7 8 7 6 6 2 4 8 8 7 5 4 7 9 7 10 10 12 11 10 10 11 12 12 9 10 10 10 10 10 10 12 12 7 8 9 9 8 8 10 10 9 9 8 9 9 9 9 8 8 8 11 16 16 18 15 19 19 18 18
5 4 4 4 6 6 6 5 5 5 4 2 4 8 7 4 4 4 4 5 6 6 7 7 8 7 7 3 8 15 9 8 10 12 9 9 9 8 9 9 10 11 12 13 12 10 10 11 12 10 11 11 9 9 11 11 11 9 9 9 10 10 9 8 6 8 9 9 8 9 9 8 9 8 9 10 10 12 11 10 11 13 16 18 18
4 5 6 6 4 4 6 7 7 5 4 4 8 10 10 10 6 4 4 5 6 6 6 6 6 6 6 4 5 6 11 10 9 7 7 9 10 12 13 13 12 11 12 15 11 12 11 11 11 11 11 12 12 10 10 10 9 11 10 10 10 9 9 8 10 9 8 9 10 9 9 8 9 10 10 10 10 9 11 12 19 19 18 19 20
5 4 4 4 4 5 5 6 6 5 5 6 8 10 10 11 8 5 4 5 5 6 6 6 6 6 7 8 7 5 4 8 8 8 9 10 10 10 11 11 13 15 16 13 13 12 13 12 12 12 12 12 12 10 11 10 11 12 10 10 10 10 10 11 11 11 6 11 10 10 10 8 9 10 10 10 10 9 12 15 19 20 19 18 20
4 4 4 4 5 4 4 5 5 5 5 7 10 11 11 10 9 7 4 5 5 6 6 6 7 6 7 8 8 6 5 9 7 7 7 7 9 12 12 13 14 15 15 16 15 13 12 12 12 13 11 11 13 13 11 10 9 12 10 10 11 10 10 11 11 10 8 10 10 10 10 9 10 10 11 10 9 9 11 15 19 20 21 20 20
4 5 4 4 3 4 4 5 5 4 5 5 4 9 9 10 10 6 5 6 5 6 6 6 6 7 7 8 8 8 7 7 7 7 7 6 8 9 10 11 11 14 15 14 16 16 14 11 11 12 13 12 13 13 12 10 10 12 12 10 10 11 11 13 11 10 6 9 12 9 10 9 9 10 12 10 9 9 9 13 19 20 21 21 21
4 4 4 3 3 5 7 6 4 4 1 6 1 5 9 10 10 5 4 5 5 6 6 6 6 5 7 7 7 9 9 8 7 8 6 5 6 8 10 11 12 12 12 12 12 11 12 11 12 14 15 14 14 16 15 13 14 11 11 12 10 10 10 5 3 6 4 4 5 6 12 8 8 10 11 10 9 10 9 11 17 20 20 21 21
5 4 4 4 4 5 5 5 2 4 4 3 3 6 8 10 4 3 4 5 5 6 6 5 5 7 7 8 7 7 9 9 8 9 2 3 6 8 9 10 12 12 12 11 15 13 12 13 13 13 16 18 19 17 17 14 13 12 11 7 4 5 7 3 7 7 9 7 8 8 9 9 8 10 10 9 8 10 10 10 12 18 20 20 20
6 6 5 5 4 5 5 4 2 1 3 3 2 6 7 3 3 4 5 5 5 6 6 6 7 6 6 6 7 7 7 6 9 6 5 4 6 7 7 9 10 11 12 12 13 15 16 19 22 24 25 25 26 27 25 27 21 16 9 8 9 5 8 8 9 9 9 7 9 12 12 10 8 9 9 8 10 10 9 10 9 13 19 20 19
7 6 5 4 4 4 5 3 2 2 3 5 3 3 3 4 2 4 4 5 5 5 6 7 6 5 6 12 11 7 6 6 5 7 6 6 5 6 7 8 9 11 13 12 12 13 18 18 20 21 22 22 25 27 26 25 23 17 13 13 9 7 11 11 10 9 8 8 9 13 11 11 6 8 8 6 7 8 8 7 7 8 14 14 16
6 4 3 3 5 5 7 6 4 4 5 2 7 5 3 4 3 4 5 5 5 6 6 6 6 5 6 7 11 8 5 5 7 6 5 3 4 5 6 7 9 12 12 14 14 13 14 15 14 14 15 18 16 13 14 23 23 18 14 13 9 10 10 10 7 6 6 7 9 10 10 8 8 6 8 4 4 5 6 2 1 4 6 6 6
Wind_Direction
104 69 358 300 261 257 247 205 222 231 219 242 241 165 299 291 236 190 147 133 118 314 297 290 267 250 285 285 66 142 227 261 213 176 192 223 226 195 197 194 192 195 199 203 204 205 204 204 201 199 200 199 200 200 200 202 200 200 200 199 201 205 207 207 209 211 213 211 211 213 215 216 216 217 218 222 226 232 236 239 245 247 250 251 255
162 162 197 223 216 232 240 239 221 209 186 229 184 192 204 239 241 293 192 159 187 199 190 243 263 269 251 250 157 220 218 201 233 206 192 200 205 198 201 195 196 194 199 205 207 207 207 206 204 201 202 201 201 202 201 203 204 203 203 202 202 204 207 209 210 213 214 215 215 216 219 219 221 220 221 222 226 231 234 240 244 247 252 253 251
171 169 179 188 189 204 239 243 253 226 206 219 194 222 221 242 248 226 207 205 217 196 189 210 242 258 231 243 208 179 229 230 214 247 203 204 202 200 198 201 199 197 198 204 207 208 209 209 207 205 204 204 203 204 203 203 204 205 207 206 205 206 208 209 211 214 215 216 217 218 221 222 224 225 225 226 229 230 235 242 246 250 250 253 253
288 168 159 177 201 205 211 228 237 231 222 214 220 227 245 251 254 256 231 171 274 291 270 244 241 253 265 278 270 191 224 200 242 154 339 295 288 226 204 202 204 200 200 201 206 209 209 210 209 209 206 206 206 205 207 204 204 206 208 209 209 208 209 210 211 213 216 216 217 220 221 224 225 227 228 229 231 232 235 239 245 250 252 251 253
185 218 202 206 206 210 226 242 255 241 227 218 200 202 218 236 242 253 273 246 235 238 262 259 232 240 277 282 274 262 217 205 212 155 113 295 247 225 231 201 205 207 203 202 204 207 210 209 210 209 209 208 209 208 208 208 205 205 207 210 212 212 210 212 212 213 215 216 217 217 221 223 226 227 229 232 232 234 235 237 240 244 248 250 252
179 201 195 230 230 219 229 241 253 270 258 227 223 204 216 223 239 261 275 272 263 244 234 261 293 274 233 217 249 261 258 216 226 191 145 190 239 220 261 220 208 204 207 204 203 205 208 210 209 209 209 211 211 210 210 211 210 206 205 209 212 214 214 213 214 215 215 216 216 217 219 221 224 226 229 231 233 235 236 237 238 240 241 246 248
174 162 245 231 253 251 334 343 324 293 277 267 248 240 219 220 205 238 251 258 267 277 269 252 257 252 250 249 256 253 256 270 229 167 205 139 223 255 267 309 252 216 206 210 209 206 206 209 210 210 209 210 212 212 210 211 212 210 208 207 209 213 215 215 216 217 217 217 217 217 219 221 222 225 226 229 232 234 236 237 238 238 240 243 245
191 176 221 262 270 290 166 201 213 251 262 260 253 257 248 226 202 204 245 253 260 269 276 277 262 268 259 257 256 249 253 261 260 243 225 162 164 176 250 233 292 280 230 214 211 213 209 208 209 210 210 210 211 213 213 211 211 212 212 210 209 210 212 214 216 218 219 219 219 219 219 220 222 224 225 227 229 231 234 237 238 239 240 241 242
144 155 218 268 278 280 285 275 222 221 272 279 258 250 256 258 225 207 214 245 245 258 262 270 275 273 277 263 254 249 241 233 261 273 265 104 139 154 176 210 201 259 275 248 221 217 213 212 210 210 211 210 210 210 212 214 212 211 213 212 212 211 209 211 213 216 218 220 221 221 221 221 222 223 225 227 228 228 231 235 237 239 241 241 240
152 182 183 244 257 263 267 251 214 197 216 227 252 270 267 268 265 244 228 228 242 253 270 266 270 275 275 276 270 259 256 250 252 263 37 131 143 173 165 189 216 220 223 267 253 222 215 214 214 212 211 210 210 209 210 211 213 213 211 213 213 213 212 211 211 213 215 218 220 221 221 222 222 222 224 226 228 228 229 232 236 238 239 238 239
195 201 206 221 239 248 252 257 251 248 241 238 236 235 250 261 271 261 248 250 263 262 265 270 275 273 276 276 280 275 261 247 232 221 225 238 213 207 170 188 194 205 218 220 226 224 217 206 212 215 214 212 211 210 210 211 212 213 213 213 213 214 214 213 211 211 213 215 217 218 220 222 221 223 224 225 227 229 229 231 233 235 235 235 237
198 229 248 262 275 268 260 257 258 255 265 262 253 242 234 239 245 259 270 257 241 254 272 271 273 277 276 272 270 278 278 267 259 249 234 230 227 206 225 211 217 203 210 230 228 218 209 209 203 210 213 213 212 211 210 211 211 212 213 214 213 214 215 215 213 211 212 214 215 217 219 220 222 223 225 225 226 227 228 229 231 232 235 235 235
240 264 260 251 250 264 276 279 267 251 257 266 277 265 250 241 249 242 252 265 284 282 268 266 276 286 274 263 264 254 258 256 254 246 228 222 218 223 219 210 215 215 214 228 229 233 235 216 203 205 211 214 211 212 211 211 211 211 213 214 214 215 215 216 215 213 213 213 215 217 218 220 221 222 224 226 227 227 228 228 229 230 232 235 237
183 213 247 264 273 265 267 274 285 273 229 234 253 283 284 274 280 272 257 258 269 268 269 278 249 257 284 292 277 270 251 243 236 230 228 218 214 223 228 234 220 205 207 209 236 270 300 294 245 204 207 212 206 207 213 214 215 213 213 214 215 215 215 215 215 214 213 214 215 216 215 217 220 222 223 226 227 229 229 229 229 230 232 233 236
269 254 243 236 236 250 255 255 261 264 257 243 214 275 280 294 323 309 299 272 280 291 268 230 263 254 274 307 281 294 265 243 240 241 231 224 217 226 229 228 235 222 176 194 211 226 240 231 305 281 232 210 210 203 207 208 211 215 215 215 216 215 215 215 215 214 213 213 214 215 214 214 216 219 222 224 227 229 230 230 230 231 231 234 235
1 0 349 335 337 333 338 331 321 321 313 304 301 290 125 339 295 268 272 288 260 251 260 233 236 260 279 234 293 299 297 276 275 244 233 234 228 230 223 222 224 231 193 178 210 206 212 227 212 240 261 236 212 208 202 205 212 213 214 216 216 216 217 216 214 214 214 214 213 213 213 212 213 216 219 222 225 228 229 229 230 231 232 233 235
358 332 330 331 353 348 331 325 317 308 302 300 289 302 303 243 253 268 268 257 273 283 270 267 248 171 226 303 283 259 255 296 349 295 288 263 240 239 234 228 231 220 205 205 203 218 210 223 241 238 244 252 241 218 206 206 211 213 216 216 215 216 217 217 216 215 215 215 214 213 213 213 213 215 216 217 221 225 227 228 230 231 232 233 235
336 339 350 353 340 336 325 313 308 302 304 311 337 188 203 226 233 234 255 257 288 311 292 276 243 188 202 222 236 274 296 327 353 299 17 317 311 299 283 261 230 222 214 211 180 215 217 220 229 239 212 218 236 293 296 257 212 210 216 215 216 216 217 217 218 217 216 215 215 214 213 213 215 215 216 218 219 223 225 226 228 230 231 232 234
354 338 322 307 306 328 327 315 314 316 332 336 314 297 298 307 303 250 190 201 177 267 267 281 245 213 225 227 246 259 272 288 273 301 293 286 260 294 279 258 242 236 228 218 203 183 200 221 230 235 245 226 212 225 214 257 282 258 217 215 215 216 216 217 217 219 218 217 216 215 213 213 215 217 219 221 222 222 224 225 225 227 228 230 232
307 309 297 300 318 323 321 321 315 317 266 312 317 298 277 279 239 242 239 172 238 256 281 295 306 310 269 275 277 262 261 258 254 257 273 290 287 281 275 284 282 251 229 221 220 209 183 217 241 232 240 248 238 209 186 228 211 251 260 228 218 216 217 217 217 218 219 219 217 215 214 213 213 216 219 221 221 223 226 225 225 224 226 229 231
305 283 274 293 326 315 315 300 296 320 345 281 254 271 284 280 279 246 242 218 208 239 253 261 277 288 302 274 301 306 289 287 289 276 265 276 277 284 287 283 278 275 266 246 237 222 192 191 211 216 210 217 216 214 215 220 227 225 234 257 235 218 216 217 218 218 218 220 220 218 217 216 216 216 216 218 220 222 224 225 225 225 225 226 227
288 311 330 320 284 279 304 323 337 326 338 321 325 333 311 286 297 348 277 240 219 225 235 235 206 245 262 262 259 271 272 268 253 255 260 257 273 282 290 296 288 278 281 272 263 250 228 214 216 212 208 209 211 212 218 217 221 220 234 238 239 223 218 215 217 218 219 219 221 221 220 218 217 217 218 217 218 219 220 222 222 222 225 225 225
333 301 318 300 335 11 343 335 334 330 315 317 284 274 302 312 326 276 264 266 256 264 270 264 259 235 240 240 251 259 285 289 284 304 309 291 283 279 279 273 274 282 273 284 298 294 307 346 305 246 232 214 203 211 216 222 218 221 228 235 247 238 220 216 215 216 217 218 219 221 222 221 220 218 218 218 218 219 219 219 220 219 223 224 224
303 296 283 340 7 352 340 326 328 321 309 314 314 311 311 334 336 356 317 314 349 325 303 288 266 262 247 230 227 248 241 249 249 255 264 272 263 263 276 292 290 273 289 299 287 276 277 253 225 242 249 198 118 244 238 237 222 219 225 244 240 235 227 216 215 216 216 217 218 218 219 221 220 220 220 220 220 219 219 220 219 221 222 224 225
298 316 350 332 8 332 325 323 299 303 307 308 314 314 357 334 335 310 317 310 283 264 309 305 347 319 337 313 270 265 263 258 255 262 261 260 277 293 276 278 280 286 282 282 277 269 262 259 243 237 235 212 192 217 216 216 221 222 229 238 248 259 245 227 215 214 215 216 217 218 218 219 219 219 222 223 222 221 221 221 220 219 221 223 226
328 345 345 334 319 318 312 316 307 303 316 347 326 333 318 300 302 287 287 267 263 299 286 298 280 306 8 296 272 266 259 260 250 249 256 268 275 267 283 281 271 276 277 264 260 273 260 237 242 238 240 238 219 211 212 209 206 215 224 228 240 238 237 239 222 214 215 217 218 218 219 219 218 218 219 221 222 222 221 222 222 220 220 224 225
305 306 308 301 294 305 310 297 302 298 314 313 269 264 307 310 303 316 311 294 325 325 308 289 283 262 204 236 255 249 262 260 250 238 241 248 254 266 285 291 284 273 276 265 270 248 261 267 251 241 237 235 223 210 211 212 208 210 217 225 243 240 233 235 231 216 216 217 217 218 219 219 220 220 220 220 221 223 223 222 222 223 224 225 225
318 297 280 277 302 303 304 299 305 317 303 302 301 297 315 336 321 316 307 326 324 310 309 303 303 313 306 306 283 276 275 268 254 265 255 251 246 257 250 268 290 294 286 281 267 263 247 254 255 239 241 232 228 214 204 208 206 211 219 214 230 239 232 231 230 219 217 217 218 218 219 219 220 220 221 222 223 224 224 224 224 224 225 226 227
247 265 288 303 300 291 290 302 295 291 295 275 285 295 292 235 261 270 279 297 274 287 280 286 307 325 309 302 289 281 277 278 294 342 321 293 281 263 247 251 258 265 282 282 271 275 270 241 247 233 222 232 230 215 207 210 212 207 210 217 230 234 231 222 218 216 216 218 219 219 219 220 220 221 221 222 223 223 224 224 224 225 226 228 229
302 270 276 284 283 291 284 285 287 273 261 263 257 276 274 277 263 269 292 289 289 281 293 302 288 308 313 308 313 307 310 304 244 204 244 258 260 259 268 263 251 256 266 278 280 266 277 274 270 270 221 224 227 222 209 211 213 211 214 215 223 234 234 214 214 213 214 217 218 220 221 221 221 221 222 223 224 225 226 227 227 226 227 229 230
299 302 306 301 285 284 287 277 274 283 287 294 287 276 289 284 284 277 269 283 279 285 285 285 300 309 314 311 312 309 320 324 323 257 243 244 253 256 259 256 253 251 257 259 271 267 241 266 259 265 274 252 231 230 219 216 215 212 221 235 236 232 228 212 210 213 215 216 218 219 221 222 222 221 222 222 224 225 227 227 228 228 228 229 231
289 294 280 274 288 297 298 297 294 293 294 294 294 283 287 269 285 294 290 287 292 290 298 298 299 305 308 311 317 313 324 327 331 332 322 310 307 290 258 252 255 246 252 259 259 269 257 253 267 273 275 277 253 233 235 230 220 211 218 226 242 260 252 241 211 214 214 216 218 220 221 223 223 222 221 220 221 223 225 227 228 228 228 229 231
242 255 266 279 292 286 289 297 297 299 293 284 277 279 271 267 260 269 285 287 290 294 287 297 301 301 304 313 315 318 331 333 339 333 325 327 324 318 316 308 296 280 257 253 259 269 272 242 250 258 262 269 271 238 227 227 220 216 219 228 237 251 262 252 238 213 216 216 217 218 220 222 223 223 221 219 219 221 223 225 226 227 228 229 230
212 234 244 258 262 280 289 291 296 297 298 292 289 289 284 284 290 284 281 288 294 295 299 294 302 304 311 305 307 313 334 331 342 334 336 334 333 326 324 319 315 309 305 294 280 266 271 274 257 254 259 251 260 250 251 234 231 221 214 225 225 226 242 252 241 227 211 215 216 217 220 221 223 223 222 220 219 220 221 223 225 226 227 228 228
222 217 227 236 241 244 254 268 283 292 293 301 311 310 311 293 289 291 286 296 292 289 295 302 303 308 297 298 305 316 333 333 335 332 331 334 335 328 320 317 307 304 301 293 287 282 275 273 265 261 255 257 255 260 250 248 238 210 220 219 221 215 223 239 243 236 206 210 213 216 218 220 222 222 221 221 220 220 220 221 222 224 224 224 225
255 246 250 246 234 231 235 250 275 286 295 295 299 283 274 301 311 309 300 296 291 288 290 298 303 296 291 289 300 315 329 320 321 313 323 339 335 320 309 310 308 304 303 300 291 280 275 273 266 255 258 256 256 253 254 246 243 234 208 214 209 210 218 225 231 225 215 209 212 213 215 217 219 219 219 219 219 218 219 219 220 221 221 221 222
268 262 252 272 287 256 229 238 275 286 282 287 278 279 294 326 335 332 323 313 307 304 298 293 292 282 278 283 294 299 304 299 303 303 314 329 331 316 305 305 305 303 303 306 305 296 285 273 275 263 259 257 256 257 255 254 247 242 238 234 221 212 213 217 230 226 223 207 211 212 214 215 216 218 217 217 216 216 217 217 218 218 218 219 220
334 314 304 299 280 292 284 248 270 273 274 268 264 258 279 11 357 320 306 317 312 300 297 291 285 277 278 280 281 282 275 292 291 291 305 313 316 308 306 299 298 299 300 302 303 305 298 282 271 272 256 254 253 249 247 252 256 248 240 239 245 250 261 262 241 226 220 197 198 212 217 220 222 221 219 218 216 215 214 215 216 217 217 217 217
325 318 301 288 293 291 298 316 295 294 280 271 265 258 260 73 306 295 287 289 283 274 279 289 288 285 281 281 281 262 257 266 284 295 297 298 300 303 297 297 294 299 302 301 303 303 298 292 279 264 265 256 253 258 246 235 242 247 238 231 254 249 228 224 248 246 226 210 208 206 203 205 213 215 221 220 218 215 214 213 214 215 215 215 214
280 289 305 314 315 333 339 324 308 290 280 280 277 222 190 199 213 220 242 256 263 276 285 285 283 284 287 284 280 277 263 275 287 286 279 282 285 285 289 290 292 297 300 303 305 302 296 294 282 280 269 265 256 249 254 247 247 245 207 206 230 224 222 223 223 230 220 213 207 214 212 211 216 217 218 219 220 217 215 213 214 213 213 212 213
270 284 302 309 321 313 299 285 277 273 281 291 150 142 276 222 212 234 253 272 287 291 292 293 292 291 288 289 284 289 290 273 266 258 250 245 258 275 284 285 290 297 298 300 297 295 295 288 285 277 272 265 253 253 247 239 232 232 217 207 232 229 228 230 234 232 225 216 214 213 210 198 207 209 206 213 221 217 217 213 216 215 214 211 212
284 267 282 305 293 283 283 290 293 294 295 279 212 235 227 243 263 274 284 285 286 285 283 287 289 289 293 360 310 309 285 266 270 268 254 245 236 239 264 281 291 293 294 297 295 295 292 290 288 284 275 267 259 244 245 239 234 228 226 214 223 227 225 241 264 236 221 223 219 215 213 199 200 206 201 213 219 202 210 198 212 209 212 212 213
269 279 259 255 277 298 298 296 294 293 292 286 197 214 229 237 241 253 268 280 284 284 285 287 294 301 304 270 247 270 297 288 279 267 262 269 266 255 249 252 258 273 294 292 286 290 290 288 290 283 276 273 266 256 251 250 240 231 221 219 224 217 212 213 234 240 220 212 219 218 213 200 196 207 207 212 211 198 205 209 209 210 207 205 211
254 259 267 266 273 274 272 270 279 284 281 277 224 217 227 234 232 241 264 280 286 287 288 291 293 297 297 298 294 285 279 291 288 294 291 291 289 280 272 265 268 267 260 260 279 293 289 288 287 286 285 280 277 266 256 248 246 240 224 216 218 216 216 215 220 224 208 199 213 215 219 199 198 210 217 216 213 210 208 212 206 205 209 207 209
249 254 275 261 250 266 279 281 277 275 271 258 214 217 222 229 234 230 255 269 275 282 288 293 297 293 296 295 294 287 287 279 281 285 289 295 298 302 300 300 292 283 280 269 252 253 274 276 279 281 280 282 274 266 259 250 246 254 234 221 217 219 218 222 221 223 212 190 200 212 222 207 196 209 219 219 216 215 214 211 210 204 206 210 213
250 250 255 269 274 268 267 265 269 272 272 344 251 225 224 228 233 218 252 263 272 281 282 287 298 301 301 303 297 294 295 298 288 284 290 301 311 313 317 314 307 303 300 289 288 280 272 271 273 277 279 278 278 280 268 262 250 243 247 229 214 218 217 222 224 228 228 182 197 204 227 215 199 208 218 219 215 221 222 210 206 208 207 210 215
257 256 255 269 276 267 261 257 262 268 269 63 11 240 241 239 236 218 255 264 273 276 276 278 280 276 287 285 292 292 292 288 278 278 296 314 315 313 311 308 305 302 301 307 306 302 297 293 290 288 285 280 277 277 276 261 250 243 240 246 232 223 219 224 271 277 336 267 225 212 228 215 196 209 221 219 212 225 223 220 200 203 206 209 213
250 253 252 250 258 265 263 266 301 334 328 353 293 268 255 257 255 240 250 254 262 270 274 277 274 274 267 268 277 283 283 282 284 279 348 344 314 317 311 302 304 303 302 295 286 286 290 295 290 280 283 278 272 269 270 278 284 265 251 263 276 236 239 197 218 229 230 197 188 213 242 230 194 207 220 215 216 224 222 226 208 202 205 208 212
242 236 239 241 238 250 262 261 101 216 276 250 341 295 276 231 189 246 253 264 272 276 278 273 275 264 252 233 224 252 267 283 277 300 28 8 325 311 303 296 299 301 305 310 304 301 299 294 286 280 273 267 262 258 256 255 251 257 255 227 234 209 237 219 225 224 227 190 178 194 229 236 200 204 215 209 210 221 221 218 217 202 206 209 210
240 250 265 268 265 269 266 262 187 233 277 120 93 48 341 177 219 272 283 281 279 281 281 278 275 278 295 299 291 284 280 275 307 16 25 360 313 306 300 298 297 303 310 315 316 311 305 292 286 284 283 275 264 254 246 241 242 239 233 229 210 189 221 214 214 213 221 209 202 193 212 224 205 199 205 201 203 223 229 228 216 201 204 207 203
235 242 262 274 283 270 267 285 165 202 269 129 82 59 91 150 193 249 261 275 282 281 282 285 291 298 297 299 296 296 304 329 18 14 4 325 287 284 292 291 300 308 312 317 312 310 311 313 312 311 312 307 293 255 229 228 228 223 225 226 208 193 221 224 211 198 234 230 212 189 211 220 215 209 197 178 211 229 218 161 115 159 171 165 159